Wind_Speed
7 7 7 5 5 3 2 4 1 2 1 1 1 1 3 2 1 2 2 1 1 2 2 1 1 1 2 2 3 2 2 5 4 4 3 2 6 5 20 12 15 27 30 28 27 25 22 21 21 22 23 23 23 22 21 21 21 21 20 18 17 16 16 14 12 12 14 15 16 17 17 18 17 16 16 16 17 17 17 16 15 13 14 14 14 15 15 15 15 15 16 16 16 17 17 17 17
7 6 6 4 5 3 1 2 1 2 2 2 2 2 2 1 1 4 6 4 3 1 1 1 1 0 1 1 1 2 4 4 2 2 2 3 3 9 19 12 18 27 29 27 26 25 22 22 22 24 24 23 24 23 22 22 22 21 19 18 17 16 16 15 12 13 14 14 16 17 17 17 17 16 17 16 16 17 17 16 15 13 14 14 14 15 15 15 15 15 16 16 16 17 17 17 17
7 5 5 2 3 4 1 2 0 0 0 3 3 3 1 0 4 7 6 3 2 1 0 1 1 0 1 3 2 1 4 2 3 3 2 2 2 13 19 13 21 27 27 27 26 25 22 23 24 25 24 23 24 23 23 23 21 20 18 17 17 17 16 15 13 13 14 15 16 16 16 16 15 16 16 15 16 16 16 17 16 13 13 14 14 14 15 15 15 15 16 16 16 16 17 17 17
5 5 5 1 1 3 2 2 1 2 1 3 3 3 2 3 6 5 2 2 1 1 0 1 1 0 2 5 2 1 4 2 4 5 1 5 6 16 20 16 23 26 26 27 26 25 23 25 26 25 24 23 23 22 23 22 20 19 18 17 18 18 17 15 15 14 15 15 15 15 15 14 14 15 15 15 15 15 16 17 16 14 12 13 13 14 14 15 15 15 15 16 16 16 17 17 17
3 4 5 1 2 1 2 2 1 2 3 2 1 3 4 5 5 4 2 2 2 1 1 1 1 0 1 4 1 1 4 0 3 7 3 6 9 18 20 18 25 25 26 26 25 25 25 25 25 25 24 23 23 23 23 22 20 20 19 18 18 19 18 17 16 16 15 15 14 14 14 14 14 14 15 16 15 15 16 16 16 13 12 12 13 13 14 14 14 15 15 16 16 16 16 17 17
2 3 6 5 2 0 2 1 1 3 3 3 2 4 4 5 4 3 1 2 1 1 1 1 1 0 1 2 3 3 3 1 3 7 5 6 11 19 21 20 25 25 27 26 25 24 25 25 25 26 25 25 27 26 24 21 20 21 20 19 18 18 18 17 17 16 16 15 15 14 14 15 15 14 15 15 15 14 14 13 13 13 12 12 12 12 13 13 14 14 15 15 16 16 15 16 18
1 1 4 5 2 1 2 1 2 3 3 4 3 4 4 3 3 2 0 1 1 1 0 1 0 0 3 1 3 5 5 4 3 5 6 7 12 20 21 21 24 25 26 26 25 25 25 24 24 27 25 25 27 26 23 21 21 21 21 20 18 18 18 17 18 17 16 16 15 14 14 14 15 15 15 14 13 13 12 12 13 13 12 11 11 12 12 13 13 14 14 14 15 16 16 16 18
3 1 1 2 1 3 1 2 3 2 3 3 3 5 4 2 3 3 2 2 1 2 0 1 1 1 3 1 2 3 5 8 4 4 8 9 13 20 21 21 23 24 25 25 26 26 26 25 24 26 25 24 24 23 22 21 21 21 21 20 19 18 18 17 17 16 16 16 15 15 14 14 13 13 13 12 12 12 12 12 13 13 12 11 11 11 11 12 12 13 13 13 14 15 15 16 17
4 2 0 1 1 1 0 3 3 3 4 4 4 5 4 2 4 3 3 3 1 2 2 3 3 2 2 2 4 2 3 9 7 6 9 11 14 19 21 21 23 24 25 24 26 28 28 26 25 25 24 23 23 22 23 23 22 21 22 22 20 19 18 17 16 16 16 16 15 15 14 13 13 13 12 12 12 12 12 12 12 12 11 11 10 10 11 11 11 12 12 12 13 14 14 15 15
3 3 1 1 1 0 2 3 3 3 4 4 4 6 4 2 4 3 3 3 2 2 2 2 3 4 2 3 5 2 2 8 10 9 10 12 15 18 20 21 22 24 24 25 27 28 28 26 24 24 23 22 22 23 22 22 21 21 22 22 20 20 19 17 16 16 15 15 15 15 14 14 14 13 13 12 12 11 11 11 11 11 11 11 10 10 10 11 11 11 11 11 12 13 13 14 14
2 3 1 2 1 1 2 3 3 3 4 4 4 5 4 3 3 2 2 3 2 2 1 2 2 4 2 4 4 1 2 9 13 12 12 14 16 18 21 20 21 23 24 26 29 29 28 25 23 24 24 22 22 22 21 20 21 21 21 21 19 19 19 18 17 17 16 15 15 15 15 15 15 14 13 13 12 11 11 11 10 10 10 10 10 10 10 10 10 10 10 10 11 12 12 13 13
1 1 2 2 2 2 2 2 3 5 5 4 3 2 0 4 3 2 4 4 2 2 3 4 3 2 2 3 2 2 3 10 13 12 14 17 17 20 21 20 21 23 25 27 29 30 27 24 23 24 24 23 23 22 20 20 22 22 20 20 20 19 18 19 18 17 17 17 16 15 16 16 15 15 14 13 12 12 11 10 10 10 10 10 10 10 10 10 10 10 10 10 10 10 10 11 12
1 1 3 1 2 2 2 1 3 5 5 3 3 2 1 4 3 4 4 3 4 2 5 6 3 2 2 3 2 2 3 10 13 12 15 17 19 21 22 22 22 24 27 28 28 29 26 23 24 24 22 21 22 23 21 20 22 22 20 19 20 19 19 19 17 17 18 17 17 16 16 16 15 15 14 13 12 12 11 10 10 10 10 10 10 10 9 9 9 10 10 10 9 10 10 10 11
2 2 3 1 1 1 2 1 2 2 4 3 2 1 1 2 3 3 3 3 6 4 3 4 4 1 3 2 2 2 3 11 13 13 15 17 20 21 23 24 24 25 27 28 28 28 26 24 25 25 24 22 22 24 23 22 21 22 23 21 19 20 21 20 18 18 19 18 18 17 16 17 15 14 14 13 12 11 11 11 10 10 10 9 9 9 9 9 9 9 10 10 9 9 10 10 11
2 2 3 1 0 0 2 2 2 1 4 3 2 0 2 4 2 2 4 5 5 3 1 2 5 2 2 3 3 2 3 12 14 14 16 18 20 20 22 23 24 25 26 28 28 27 26 26 27 27 26 24 24 25 25 25 24 23 23 22 20 20 21 20 19 19 19 19 19 19 18 17 16 15 14 14 12 13 13 12 11 10 9 9 9 9 9 9 9 9 10 9 9 9 10 10 11
2 2 3 0 1 1 2 3 0 1 4 3 2 1 1 5 1 2 3 3 3 2 1 3 5 3 3 4 3 1 4 13 15 15 17 18 20 19 20 22 23 26 26 27 27 27 26 27 29 29 26 25 27 27 27 27 26 24 22 21 21 20 20 21 21 21 19 20 21 20 20 18 17 16 15 14 14 15 15 13 12 10 9 9 9 9 9 9 9 9 9 8 8 8 9 10 10
2 3 3 1 2 2 3 4 3 2 4 4 3 1 1 5 2 2 2 1 3 2 2 3 3 3 4 3 2 1 7 15 16 16 17 17 19 18 19 22 22 24 26 27 29 28 27 27 30 30 26 26 29 29 28 27 27 27 23 21 21 20 21 23 23 23 21 22 22 21 21 20 19 18 18 17 17 17 15 14 12 10 9 9 9 9 9 9 9 8 7 6 6 5 6 7 8
3 2 2 2 3 3 5 6 5 3 3 4 2 1 4 4 2 1 2 2 3 3 4 4 5 8 9 6 2 3 11 17 17 18 16 16 18 17 19 22 23 25 26 29 31 31 30 29 30 31 28 28 30 30 29 28 29 28 24 23 24 22 22 24 24 25 24 23 23 22 22 21 21 21 20 20 20 18 16 14 12 11 9 9 9 9 8 8 7 6 4 4 4 4 4 4 5
3 3 1 3 5 4 5 6 4 3 3 4 3 2 4 5 2 1 2 3 3 4 6 3 6 11 12 9 5 6 14 18 18 19 17 18 20 19 19 21 24 25 27 30 32 33 33 32 32 32 31 31 31 31 30 30 31 28 25 25 27 25 23 24 24 25 26 25 23 23 23 23 22 22 22 22 20 18 16 13 12 11 10 10 10 9 9 7 6 6 5 5 4 4 4 4 4
2 3 2 5 5 4 5 5 6 5 2 4 4 1 3 5 2 1 3 4 4 7 7 4 7 12 12 8 8 11 16 18 19 20 19 21 22 22 21 22 25 28 29 30 32 34 33 33 33 33 33 33 33 33 32 31 31 28 27 27 27 27 26 25 24 25 26 26 25 24 24 24 23 23 23 23 21 19 16 14 14 13 13 13 11 10 9 7 5 4 3 4 5 5 5 5 5
2 3 4 4 3 3 5 6 7 5 2 3 2 1 3 4 2 2 3 3 8 10 8 9 11 12 9 5 8 13 16 17 20 21 21 22 23 24 26 27 29 30 30 28 30 33 34 34 33 33 34 35 35 34 34 33 32 29 29 29 28 28 28 27 26 25 25 26 26 25 25 24 24 24 23 23 21 19 17 15 16 15 15 14 12 10 8 6 4 3 3 5 5 5 5 5 6
2 3 5 4 4 3 5 4 4 3 3 2 1 2 5 1 1 4 5 5 10 8 6 11 12 11 7 5 9 12 14 16 19 21 23 24 25 26 28 29 28 27 28 29 30 31 34 35 32 33 34 36 36 36 35 34 33 32 32 31 29 29 29 29 28 26 26 25 26 26 26 26 26 25 24 23 22 20 18 16 17 16 15 14 13 10 8 7 5 4 5 5 5 6 6 6 6
2 3 3 3 4 4 3 1 3 3 3 3 3 3 2 1 4 4 8 13 14 7 4 7 8 7 6 5 9 11 13 15 18 23 25 27 27 27 28 28 28 28 29 30 31 30 33 35 34 34 35 37 37 37 36 35 34 34 33 31 29 29 30 29 29 28 27 26 26 26 26 26 26 26 25 24 23 21 19 18 17 17 15 14 13 11 10 8 7 6 6 6 6 6 6 6 6
3 4 4 3 3 5 3 0 2 3 4 5 1 3 3 6 6 1 7 16 16 10 4 5 5 4 3 5 7 11 14 16 20 25 28 29 30 32 32 30 30 30 29 29 30 31 33 37 37 36 36 38 38 37 36 35 35 34 32 31 29 30 30 29 29 28 28 27 27 27 26 26 26 26 26 26 24 22 21 19 18 17 16 15 14 12 11 9 8 7 7 7 7 7 7 7 7
3 5 4 1 2 5 4 3 3 3 5 3 1 5 9 9 2 3 14 17 14 11 8 8 7 4 4 7 8 10 12 16 20 23 26 27 29 30 30 30 28 27 28 30 30 30 32 36 37 37 38 39 38 37 36 36 35 34 32 31 30 30 30 29 29 29 28 28 28 28 27 26 26 26 27 27 26 24 22 21 20 19 17 16 15 13 12 10 9 8 8 8 8 8 8 8 8
5 5 3 2 3 5 4 3 3 2 3 1 2 9 9 5 0 7 19 16 10 9 9 10 7 7 9 8 8 9 10 14 18 21 24 25 26 26 28 29 28 28 30 31 31 31 32 35 37 38 39 40 39 38 38 37 36 35 34 32 31 31 31 31 30 30 30 29 29 29 28 27 26 26 27 28 27 26 24 23 22 20 19 18 16 14 12 11 10 9 9 9 9 9 9 9 10
3 3 3 4 5 5 2 3 3 2 3 3 3 11 8 1 1 8 12 6 3 4 7 7 4 9 11 8 8 9 10 15 20 20 19 21 23 26 28 29 31 32 31 31 32 33 32 34 37 40 40 41 41 41 40 39 38 37 35 33 32 32 32 32 31 30 31 31 30 29 29 28 26 26 27 28 28 27 25 25 24 22 21 19 17 15 13 12 11 10 9 9 9 9 10 10 11
1 1 4 6 6 5 2 2 5 2 2 4 4 11 10 2 2 12 12 3 1 4 8 7 5 9 9 8 8 7 10 18 20 17 17 21 25 28 29 32 34 33 32 33 34 33 32 35 38 41 41 41 42 42 42 41 40 38 36 35 34 34 34 33 32 32 32 32 31 30 30 29 27 26 27 29 28 28 27 26 25 24 23 21 19 17 15 14 12 11 11 11 11 11 12 12 12
1 1 4 8 7 6 4 2 3 1 1 3 3 9 9 4 8 15 12 5 2 5 9 9 7 8 7 7 7 6 11 16 15 16 23 26 28 29 30 35 36 34 34 34 34 33 34 36 37 39 39 40 43 43 42 42 41 40 39 37 36 35 35 34 33 33 32 33 32 31 31 30 29 28 28 29 29 28 27 27 26 26 25 22 20 19 17 16 15 14 13 13 13 13 14 14 14
1 2 2 6 7 6 5 1 3 2 1 1 1 6 10 6 10 12 8 4 2 5 9 9 8 7 8 7 7 8 10 12 14 22 29 29 28 29 31 35 35 34 33 32 33 34 35 36 35 37 39 40 42 42 42 43 43 41 40 39 38 38 37 36 35 34 34 33 33 33 32 31 30 29 29 30 30 29 28 28 28 27 26 24 22 21 20 18 17 16 16 15 15 15 15 15 15
2 2 2 2 3 5 5 1 2 2 1 3 2 2 10 14 11 8 5 1 2 7 9 9 9 8 7 7 7 9 8 11 18 24 27 28 29 29 30 32 32 34 33 31 34 35 35 35 36 38 39 40 42 41 40 41 43 43 42 41 40 40 39 38 37 36 35 35 34 34 33 32 32 31 30 31 32 31 30 29 29 28 27 25 24 23 22 21 19 18 18 17 17 16 16 16 16
2 2 3 2 1 5 7 3 0 1 2 4 1 3 9 16 12 4 1 3 4 7 11 10 11 11 10 8 7 8 8 11 18 23 25 27 28 28 29 31 31 33 34 34 34 34 34 35 37 38 38 39 41 42 41 42 43 43 42 42 42 41 40 40 39 38 36 36 36 35 34 34 34 33 32 32 32 33 32 31 30 29 28 26 26 25 24 23 22 21 20 19 19 18 18 17 18
3 1 3 3 2 4 6 3 1 1 2 4 1 3 7 11 9 3 2 2 2 9 15 14 13 13 11 9 7 8 9 9 13 19 25 27 28 29 30 31 32 34 36 37 34 33 34 35 37 38 38 39 40 41 42 41 42 43 43 43 42 42 41 41 40 39 38 38 37 36 36 36 36 36 34 33 33 33 32 32 31 30 29 28 27 27 26 25 24 23 22 21 21 20 20 19 20
3 2 2 3 3 3 4 3 3 3 0 2 1 4 11 16 16 14 7 4 8 12 16 16 13 12 10 7 8 8 9 10 11 14 20 26 29 31 32 32 33 33 35 37 36 35 35 35 37 39 39 39 39 40 40 39 39 41 42 42 41 41 41 41 40 40 40 40 39 38 38 38 38 37 35 35 34 33 33 33 33 32 31 30 29 29 28 27 26 25 25 24 23 22 22 21 21
2 3 3 4 2 3 5 5 3 5 2 3 2 5 15 19 19 20 12 5 9 13 13 13 13 11 10 8 8 8 9 10 10 12 16 21 26 29 31 31 30 30 32 34 36 35 34 34 34 37 38 37 38 39 38 38 37 36 37 37 38 38 39 39 39 39 40 40 40 40 40 40 39 38 37 36 35 35 34 34 34 33 33 32 31 31 30 30 29 29 28 26 25 24 24 23 22
4 3 3 4 5 5 5 5 3 3 3 6 5 7 13 18 18 20 15 4 8 13 10 9 10 10 10 9 9 9 10 10 12 17 17 17 21 25 27 29 28 29 29 31 33 34 33 32 31 33 35 34 34 35 35 35 34 33 33 32 32 34 37 39 39 39 39 40 41 41 41 41 40 39 38 37 36 36 36 36 36 35 34 34 34 33 34 34 33 32 30 29 27 26 26 25 23
3 2 3 4 5 6 5 3 4 1 2 6 5 6 11 15 19 21 17 8 6 10 10 10 11 11 10 11 11 11 10 10 15 19 17 15 17 20 23 26 26 26 27 27 29 31 32 32 31 32 32 32 33 32 33 34 33 32 30 30 31 32 34 35 36 38 39 41 42 42 42 41 40 40 39 39 38 38 37 37 38 37 36 37 37 37 36 35 34 32 31 30 29 28 28 27 26
3 2 3 4 4 7 5 2 4 1 0 5 4 8 14 14 15 18 14 9 10 12 12 12 14 14 12 14 15 14 12 11 14 17 19 18 17 17 19 22 24 25 26 27 28 29 32 33 34 33 30 31 33 34 34 34 36 36 33 34 34 33 32 34 37 40 42 41 40 40 40 40 40 40 41 40 39 39 39 39 40 40 39 39 39 38 36 35 35 34 32 31 30 30 30 28 27
3 2 1 4 4 5 6 2 3 2 0 5 6 10 17 14 12 15 9 6 8 11 11 11 15 17 16 16 17 17 17 17 17 18 20 24 21 17 16 18 21 24 25 26 29 30 30 31 32 32 30 31 33 35 36 35 36 37 36 35 35 33 32 34 38 39 39 38 37 37 38 39 39 40 40 40 40 41 41 41 41 41 41 40 40 38 37 37 37 36 35 34 32 30 29 28 29
2 2 1 5 3 1 4 3 4 2 1 4 5 8 14 10 8 8 5 8 8 11 13 14 15 16 15 15 15 18 20 20 20 19 20 25 26 21 16 16 17 19 20 22 24 26 27 29 31 32 32 32 33 35 37 36 34 34 33 32 30 29 29 29 31 32 33 33 34 35 37 38 38 39 40 40 40 41 41 42 42 42 42 41 41 40 39 39 39 39 38 37 35 30 29 30 32
2 5 5 6 4 4 6 4 4 3 1 2 3 5 7 5 7 6 5 9 11 14 16 18 16 15 15 15 17 18 19 19 20 21 21 23 26 26 21 16 14 14 17 19 20 22 24 26 29 31 32 33 33 35 35 34 32 31 30 28 24 23 23 23 24 27 29 30 31 35 37 38 39 40 40 40 41 41 42 42 42 42 42 42 41 41 42 42 41 41 40 40 39 36 35 34 32
4 5 9 9 5 5 4 4 5 4 3 1 2 4 5 6 9 8 6 8 13 14 18 20 18 18 19 19 19 18 18 17 17 19 21 23 26 29 28 23 16 14 15 16 17 19 21 23 25 27 30 31 32 32 33 33 33 30 29 28 25 23 23 24 26 29 31 33 35 38 39 39 40 40 41 41 41 41 42 42 42 42 42 42 43 42 41 41 40 42 42 42 42 41 39 33 30
3 4 5 6 3 3 2 2 2 1 3 2 3 0 5 7 8 7 7 9 13 14 18 19 17 18 17 15 16 16 17 16 16 18 20 24 28 29 31 32 27 21 17 15 15 16 18 20 22 24 26 28 29 29 30 31 32 31 30 31 30 29 27 28 31 32 32 34 37 38 38 39 39 39 40 40 40 41 41 41 42 42 42 42 42 42 41 40 40 42 43 43 43 43 39 32 31
3 3 4 5 5 4 4 2 2 2 3 2 2 3 2 5 5 6 9 10 16 18 18 19 17 16 15 14 14 15 15 15 14 16 18 22 28 30 30 33 36 33 26 18 14 13 14 16 18 20 22 24 26 26 27 28 30 32 32 32 31 31 30 30 30 30 31 32 33 35 36 37 37 38 38 39 40 40 40 41 41 41 41 41 41 42 43 42 41 41 41 42 42 42 41 37 34
3 3 4 4 5 4 4 4 2 1 2 3 2 4 1 5 4 8 9 9 15 17 16 17 15 15 14 14 15 15 15 15 14 14 16 21 26 31 32 35 41 42 39 32 23 16 12 11 13 15 17 19 21 22 23 25 27 29 30 30 31 31 32 31 28 27 28 29 30 32 33 34 36 36 37 38 39 39 40 40 41 41 41 42 42 43 44 43 42 41 41 41 42 43 44 43 39
2 5 4 4 5 3 3 3 2 2 1 4 4 3 3 4 3 8 8 7 10 12 11 11 11 12 13 12 14 14 13 13 13 14 17 22 25 30 34 38 43 43 43 42 37 30 23 17 12 10 10 11 13 16 19 21 23 25 26 28 29 30 31 30 28 25 25 26 28 30 31 33 34 35 36 36 37 38 38 39 40 41 42 42 42 42 42 42 42 42 42 43 44 44 44 45 44
3 4 3 3 4 3 3 1 3 3 3 5 4 2 2 2 2 4 5 5 5 7 7 9 11 12 12 12 12 12 12 11 11 12 17 22 26 31 35 38 41 42 43 45 44 41 37 31 24 19 16 13 11 11 13 16 19 21 24 26 27 28 29 27 25 26 26 26 26 28 30 31 32 33 34 34 35 36 37 38 39 40 41 41 41 42 42 43 43 44 43 43 43 43 44 44 44
3 3 3 2 3 3 3 3 3 1 4 5 3 2 2 3 2 3 3 2 2 3 5 9 11 11 10 9 10 10 10 10 10 11 14 19 23 28 32 34 37 40 42 43 42 41 42 40 36 32 28 23 18 14 11 11 13 16 20 22 23 24 24 22 22 24 26 25 26 28 28 28 29 30 31 32 34 35 36 37 38 39 40 41 41 42 43 43 43 43 43 43 43 43 44 43 43
3 2 3 2 4 3 2 3 1 2 4 3 2 2 2 2 1 3 2 2 2 1 2 5 7 8 8 8 9 9 8 9 10 10 11 14 18 23 26 28 31 35 37 38 38 38 39 40 40 39 37 33 28 22 18 14 12 12 14 17 19 22 22 21 21 22 23 24 25 26 26 27 28 29 30 32 33 34 35 36 37 38 39 40 41 42 42 42 42 42 42 43 43 43 44 44 45
2 2 3 2 1 2 4 4 3 4 4 3 1 1 2 1 1 3 3 0 2 1 1 2 4 6 8 9 8 7 8 8 9 10 10 12 17 20 22 24 27 30 32 34 35 35 35 36 37 37 37 36 34 31 28 24 20 16 13 13 14 17 19 20 21 21 23 23 23 24 25 26 27 29 30 32 33 33 34 35 35 37 37 38 39 40 41 41 41 41 42 42 43 44 43 44 45
2 3 4 3 3 1 4 4 3 5 5 4 2 1 3 2 4 6 5 3 1 1 2 3 2 5 6 8 8 10 11 10 10 11 10 13 18 20 21 23 25 27 30 31 32 33 33 32 33 33 34 34 34 34 32 30 28 24 20 16 13 12 13 15 16 18 20 21 22 23 24 24 26 28 29 30 31 31 32 33 34 34 35 36 37 38 39 40 40 40 41 42 42 43 42 42 44
1 2 3 1 3 3 2 3 3 2 3 4 3 2 1 2 3 5 5 2 1 2 3 3 4 6 7 8 10 11 10 9 9 10 11 14 19 21 22 23 24 26 28 29 30 31 30 30 30 30 30 32 33 32 31 30 29 27 26 23 20 17 14 13 12 13 14 16 17 19 21 22 24 26 27 28 29 30 31 31 32 33 33 34 35 36 37 38 39 40 41 42 42 42 41 42 43
1 2 1 4 3 4 1 2 1 3 1 3 2 1 2 2 2 4 3 2 0 3 3 3 3 5 7 8 9 9 8 8 8 8 10 13 16 19 21 22 23 25 26 27 28 28 28 29 30 30 31 32 33 32 31 30 29 28 27 26 25 23 21 19 17 15 13 12 12 13 15 17 19 21 23 25 26 28 29 30 31 32 32 33 34 35 36 37 38 39 40 41 42 42 41 42 43
2 1 3 3 1 3 2 1 3 3 2 4 1 1 2 2 2 2 2 3 5 7 8 8 7 8 8 9 9 9 8 8 8 9 10 13 16 19 21 22 23 25 25 25 26 27 28 28 30 31 31 32 33 31 30 30 30 30 29 27 26 25 23 22 20 18 16 14 13 13 12 13 14 15 17 18 20 23 25 27 29 30 30 31 32 33 34 36 36 38 40 41 41 40 40 42 42
2 2 2 1 1 1 2 1 2 2 2 4 3 3 3 3 2 3 5 6 8 10 10 11 12 12 10 10 11 11 10 8 9 9 10 13 17 19 21 22 23 25 25 24 25 26 28 29 30 31 30 30 32 32 30 30 29 29 29 28 27 25 24 23 21 20 18 17 17 16 15 14 13 13 13 13 15 17 19 22 25 27 28 29 30 31 32 34 35 37 39 39 40 38 39 41 41
3 2 3 2 3 2 0 1 1 1 2 4 4 4 3 3 2 1 3 4 4 5 7 8 9 10 9 10 11 11 11 9 9 9 8 12 15 17 19 19 19 21 22 22 23 25 27 29 29 30 30 30 32 33 31 29 29 28 28 29 27 27 26 24 23 22 21 20 19 18 18 16 15 14 13 13 12 13 14 17 19 22 24 26 28 29 30 32 33 36 38 38 38 37 38 41 41
1 3 3 2 0 0 1 1 1 1 2 2 2 5 4 2 2 2 3 3 2 2 5 7 7 8 8 9 9 9 10 9 10 8 8 12 14 15 16 17 16 18 21 22 22 24 27 29 28 28 29 29 30 32 30 26 27 27 27 28 28 27 27 26 24 23 22 22 21 20 20 19 18 17 16 16 15 14 13 14 15 17 20 22 24 26 28 29 31 34 36 36 36 35 36 39 39
2 2 1 1 1 1 2 2 0 1 1 2 2 6 5 1 2 2 1 2 3 2 3 6 7 7 8 9 9 8 8 9 9 9 10 11 12 14 16 16 17 18 20 22 22 25 26 26 26 25 25 25 25 29 29 24 25 27 25 27 29 28 27 27 25 23 22 23 22 21 21 20 19 19 18 17 17 16 16 15 14 14 15 17 20 22 24 27 29 32 33 34 34 34 35 38 37
Wind_Direction
348 348 350 352 350 317 336 45 66 323 81 237 253 201 253 221 15 278 259 228 260 255 197 232 229 206 138 169 217 249 250 190 175 166 218 313 348 205 175 172 176 174 171 169 172 171 169 174 176 171 164 161 159 153 149 146 142 137 138 140 135 128 129 128 128 129 126 124 124 124 121 115 113 112 108 105 103 104 107 108 105 97 96 96 95 97 97 99 99 100 101 101 100 96 96 96 96
349 351 358 345 2 7 238 65 105 325 41 265 246 178 257 351 11 243 233 210 211 239 168 198 211 267 127 263 257 268 253 210 199 198 279 318 349 183 174 171 172 174 172 169 172 170 171 174 172 167 164 163 159 153 148 144 141 139 140 140 138 135 132 131 128 128 128 128 127 126 123 116 113 114 110 106 106 106 108 109 109 103 100 99 99 99 98 98 99 101 103 104 102 100 99 98 99
348 356 5 321 0 32 97 45 146 114 96 258 265 211 228 187 234 242 239 226 219 188 122 158 170 257 186 254 239 219 252 244 203 208 285 222 175 179 176 172 171 174 173 171 172 171 172 171 169 166 164 163 157 153 147 142 144 142 143 141 139 139 136 135 133 130 127 128 129 128 125 119 116 116 114 111 109 108 108 109 110 106 102 102 102 100 99 100 100 102 104 106 106 105 103 101 102
354 9 5 331 37 32 64 33 147 136 212 246 279 245 207 217 243 263 274 265 232 172 55 127 195 215 203 236 239 282 250 263 202 189 220 207 191 180 175 171 172 174 174 172 174 172 171 170 168 165 163 162 155 150 145 145 151 147 145 145 142 140 140 140 139 137 132 131 131 130 128 124 122 119 118 118 115 111 108 106 107 107 106 104 103 101 101 101 102 103 105 108 110 108 106 105 106
356 19 11 68 104 19 95 67 106 163 221 181 256 259 220 224 253 281 303 275 227 167 92 122 251 346 194 235 202 261 232 267 199 190 190 201 190 179 176 173 173 175 175 175 176 173 171 170 168 166 163 160 154 148 146 148 153 151 147 146 143 141 142 141 140 141 138 137 134 134 133 130 128 123 122 122 120 114 108 105 105 109 109 106 104 103 103 104 104 105 106 110 112 111 112 111 111
357 44 35 67 89 84 127 127 162 226 237 159 227 259 233 229 238 251 293 287 247 209 153 139 294 315 276 249 209 222 207 91 162 190 201 193 185 180 178 175 175 177 176 177 176 174 173 171 169 167 161 159 156 151 148 150 152 150 148 146 144 142 141 142 142 142 141 139 138 138 137 134 131 129 127 123 121 117 113 109 108 112 114 109 106 106 105 108 108 106 108 110 113 114 116 115 117
65 106 34 65 57 26 112 223 211 240 251 177 214 264 258 244 205 190 228 262 235 216 135 193 12 27 261 278 246 239 211 198 142 180 199 184 183 184 181 177 179 179 178 179 176 175 176 173 171 168 163 160 159 156 152 153 153 148 147 148 146 143 142 145 144 143 142 141 141 142 142 137 132 131 130 126 123 119 118 116 114 116 116 112 110 108 107 109 110 108 109 110 112 114 117 120 124
73 126 357 87 51 17 96 255 253 225 260 236 234 256 262 239 166 168 198 199 216 200 160 235 165 206 261 28 269 250 218 219 189 176 192 184 185 187 184 179 181 181 180 180 176 177 177 173 170 169 167 162 157 156 156 156 155 151 150 149 148 148 148 149 147 146 145 144 144 145 146 144 141 138 135 132 129 124 123 121 120 120 118 116 112 110 110 111 111 110 111 111 110 112 120 128 131
56 52 112 94 108 24 315 266 271 240 260 271 260 255 263 216 166 175 197 219 251 176 203 207 167 210 294 349 256 274 246 220 201 187 193 191 188 189 186 182 184 182 182 181 177 178 176 172 169 168 169 164 158 157 160 158 157 156 153 150 150 151 154 154 152 150 147 145 145 146 148 150 151 147 143 139 135 131 129 126 124 124 123 120 116 113 113 114 114 114 113 112 110 114 124 133 135
44 30 148 85 101 237 292 257 252 253 247 255 262 254 250 187 167 194 192 227 231 155 228 169 158 231 290 304 257 279 244 202 194 194 196 196 191 191 188 186 188 183 182 180 177 179 177 174 170 169 169 165 162 161 165 163 160 159 154 151 152 155 158 158 157 155 150 148 148 149 149 150 151 148 148 145 140 137 134 131 129 128 125 122 120 118 116 118 118 118 117 114 112 119 130 134 136
45 359 107 91 71 223 255 245 242 255 265 289 281 259 239 162 138 208 203 253 237 171 212 129 178 234 257 283 252 251 216 189 192 192 191 195 191 191 190 187 190 186 183 180 178 179 177 176 173 169 169 167 165 165 170 168 160 158 157 155 155 160 163 161 160 158 157 155 152 152 152 151 150 147 147 148 145 143 139 134 132 130 128 125 123 121 119 119 121 120 119 116 112 121 135 139 139
102 335 65 108 203 213 223 252 270 281 293 301 277 288 227 142 135 218 210 242 219 179 215 182 193 174 179 273 250 264 237 196 193 192 190 191 189 190 191 188 190 188 185 182 180 179 176 176 176 174 175 172 166 166 171 168 161 161 161 160 158 164 168 166 164 161 162 159 157 156 154 152 151 150 148 150 149 145 142 139 138 135 133 130 126 123 121 121 122 121 119 115 116 127 140 144 143
132 153 90 143 193 185 208 249 282 303 300 267 239 303 103 148 190 219 187 221 196 179 239 204 159 104 215 265 273 290 242 200 187 190 190 187 188 187 189 190 190 188 185 185 183 179 177 177 177 178 177 172 165 166 169 165 164 163 163 165 164 167 168 167 168 167 166 162 163 163 160 156 153 153 152 153 154 149 147 146 143 141 139 135 131 127 124 124 124 121 119 118 125 136 142 144 143
145 155 121 179 150 153 200 262 274 283 279 259 251 284 189 195 215 196 147 225 224 192 236 196 145 116 243 268 292 298 226 191 180 186 186 186 191 185 188 191 191 190 187 187 185 182 180 178 177 178 175 172 170 169 170 168 168 167 167 171 168 170 171 170 169 168 169 169 170 169 168 164 158 157 157 158 159 157 155 152 149 147 145 139 136 131 127 125 122 119 118 123 135 141 143 145 142
137 141 95 140 83 211 203 231 246 226 263 259 263 156 208 247 179 163 189 222 251 204 178 176 168 189 202 195 240 271 201 181 175 181 181 184 190 187 188 190 191 191 190 189 186 184 182 181 180 179 177 178 178 174 173 172 172 172 173 175 171 173 176 175 174 171 171 175 177 177 176 170 165 166 166 163 164 165 160 155 153 150 147 142 140 135 131 127 122 120 116 126 143 146 148 147 143
117 113 70 112 208 254 203 205 195 255 260 241 276 33 245 274 156 192 230 210 285 274 178 193 189 214 190 187 219 246 178 176 175 179 177 179 186 188 190 191 191 192 194 191 188 186 183 185 185 183 182 183 184 179 178 177 177 177 177 177 174 178 181 179 178 177 177 178 181 182 182 178 169 171 174 170 173 178 172 162 153 150 150 144 145 142 136 132 126 123 118 135 156 157 155 152 147
66 83 85 260 198 200 199 200 191 193 264 268 301 33 202 296 294 231 284 196 259 260 241 228 224 241 213 200 229 211 170 173 173 175 173 174 181 185 189 193 194 194 195 192 190 189 187 189 189 188 189 188 187 185 184 182 181 180 179 180 178 180 182 182 181 180 182 182 185 186 186 182 176 177 178 177 184 188 183 174 159 151 152 147 149 146 140 138 135 133 129 151 171 164 160 158 153
59 89 135 227 194 199 193 195 199 185 268 269 282 169 195 275 283 269 325 280 279 276 260 259 266 256 241 239 252 182 168 172 172 173 173 174 180 184 188 192 194 196 197 195 193 192 191 193 193 194 194 190 188 188 187 184 183 183 183 183 183 182 179 182 185 184 185 186 188 191 190 187 184 185 184 185 192 193 190 187 172 154 155 154 152 151 153 152 152 164 179 188 182 172 165 160 159
89 120 169 230 201 212 202 188 198 200 257 267 276 206 198 239 232 58 272 276 336 288 266 248 256 260 252 237 222 184 171 174 177 178 180 183 186 188 191 193 196 199 198 199 198 195 195 194 195 196 194 191 189 189 188 186 185 186 185 184 186 188 184 185 189 189 190 191 192 193 192 192 191 191 192 193 197 198 195 197 185 164 160 162 159 164 177 185 193 210 219 210 195 188 181 170 172
154 139 212 244 212 234 235 204 216 222 247 285 284 222 201 240 225 119 241 281 303 257 255 238 241 254 250 223 193 185 177 180 185 186 188 191 195 194 194 195 197 201 201 201 200 199 199 197 196 196 195 192 190 190 189 188 188 188 187 186 188 191 192 191 191 191 192 195 196 195 195 196 196 196 198 199 202 205 203 205 199 184 177 177 179 185 196 210 223 236 229 214 207 201 194 188 186
159 160 206 231 188 244 247 208 229 236 209 241 261 27 265 252 207 200 203 284 279 253 236 227 237 248 244 205 188 186 181 187 192 195 195 196 201 201 201 202 201 203 203 203 203 202 202 201 199 197 196 195 193 193 192 191 191 190 189 189 191 193 197 198 197 196 195 197 199 200 199 199 200 200 202 204 207 210 211 213 209 202 195 194 201 208 215 227 243 245 226 221 215 210 208 203 198
162 219 211 198 153 231 254 203 228 212 161 217 196 269 271 269 197 216 188 221 256 255 219 218 233 246 239 189 187 189 190 195 196 200 203 202 204 206 207 207 206 206 205 205 206 205 204 204 203 200 197 196 197 197 196 195 194 193 192 193 195 197 201 203 204 204 203 203 204 204 204 203 204 206 208 210 212 214 216 218 214 210 207 206 211 219 226 233 244 243 236 232 224 221 220 216 214
211 268 257 224 176 220 257 172 227 181 151 210 202 263 300 328 276 228 192 224 245 244 188 205 228 249 241 186 178 190 199 200 201 204 205 205 206 207 208 208 208 207 207 208 207 207 206 206 206 204 200 198 199 200 199 198 196 196 197 199 201 202 204 206 208 209 209 209 209 209 209 208 208 211 213 214 215 217 220 221 218 216 214 213 217 223 230 236 241 241 241 238 232 230 227 226 226
200 259 282 257 190 218 251 352 239 187 202 226 224 317 283 248 271 321 220 234 248 253 230 223 239 258 220 184 183 197 204 205 208 210 208 209 209 209 209 208 209 209 208 209 209 208 208 207 206 205 203 202 201 200 201 200 200 201 202 204 205 205 205 207 210 211 212 212 213 214 214 213 213 215 216 216 217 220 223 224 221 219 218 218 221 225 230 235 238 238 239 239 237 235 232 232 231
195 227 263 249 207 243 275 294 254 215 231 244 356 272 253 241 247 304 257 248 251 256 260 252 247 260 218 203 207 204 209 213 216 216 215 215 214 214 213 212 212 211 210 209 209 208 209 209 207 205 204 204 202 202 203 202 203 204 205 206 207 207 207 209 212 213 214 215 216 217 218 218 218 219 218 217 219 222 225 227 225 224 222 222 223 226 229 232 234 234 235 235 236 236 236 235 235
214 212 252 265 277 290 300 274 241 235 250 156 224 266 262 248 250 271 259 253 259 256 255 260 254 254 242 224 218 208 212 217 219 219 218 219 218 218 217 215 214 213 213 210 209 209 210 210 208 207 206 205 204 205 205 205 206 206 207 209 209 209 209 211 213 215 217 218 219 219 221 222 223 223 221 219 221 224 226 227 227 227 226 227 228 230 232 234 234 234 233 234 236 236 237 236 236
194 207 255 254 285 304 273 256 268 273 259 168 217 273 269 227 11 267 257 243 260 261 258 268 257 249 248 238 229 219 220 223 222 219 219 220 219 219 218 215 215 215 215 211 210 210 209 209 209 209 207 206 205 206 207 207 208 209 210 211 212 212 212 213 214 217 220 221 222 222 222 223 226 226 223 222 224 227 229 228 228 228 228 229 230 233 234 235 236 236 235 235 235 235 237 237 237
123 280 293 284 311 308 274 296 301 318 277 176 179 271 271 122 186 248 258 255 210 267 271 277 252 249 253 244 239 226 228 232 226 217 215 217 215 216 215 214 215 215 214 212 212 210 208 209 211 210 208 207 206 206 208 208 209 211 212 213 215 215 214 215 217 219 222 223 223 223 224 225 226 227 224 225 227 228 229 229 229 229 230 229 230 232 233 234 234 234 233 231 232 232 234 235 236
74 27 316 301 340 331 305 340 311 350 263 193 161 286 280 174 214 248 266 278 284 283 272 274 259 254 259 249 246 232 233 236 226 219 221 220 218 216 215 216 215 214 215 215 214 211 210 210 210 210 208 207 208 208 208 210 211 212 213 215 216 218 218 218 219 222 223 224 224 224 225 226 227 227 225 226 227 228 229 229 230 231 231 230 230 231 232 233 233 232 232 231 233 233 234 236 237
272 42 33 308 344 327 294 25 341 356 254 267 111 299 290 248 235 248 277 296 296 289 270 271 268 259 258 248 246 244 237 233 224 224 226 226 224 220 219 220 217 215 216 215 214 212 211 210 209 210 209 209 210 209 209 211 212 213 215 215 215 217 219 220 222 223 224 225 225 225 226 226 227 227 227 227 226 226 228 229 231 233 231 229 229 230 231 232 233 234 234 234 235 237 239 240 241
296 341 46 347 341 288 291 342 349 337 311 0 89 244 283 286 272 249 281 337 188 267 270 270 274 266 264 256 251 255 246 235 234 233 231 230 229 225 223 223 219 217 217 215 215 214 213 211 209 210 210 210 211 211 210 211 213 214 216 217 217 218 219 221 223 224 225 226 227 227 227 228 228 228 227 228 226 226 227 228 231 232 231 230 229 230 231 233 233 234 235 236 237 239 241 243 245
18 323 305 344 205 270 307 326 23 268 308 9 72 233 279 287 288 267 275 106 157 261 273 269 272 270 269 268 261 264 263 249 246 246 241 237 234 230 227 226 222 219 218 217 217 215 214 212 211 211 210 209 212 213 213 214 216 216 217 218 219 219 219 221 223 225 227 228 228 228 228 229 229 228 227 228 228 228 228 229 231 231 231 230 230 230 231 233 234 234 235 236 238 240 242 244 246
3 35 261 274 243 290 323 333 16 15 296 350 354 250 281 281 282 272 150 142 244 275 279 276 273 273 272 271 268 266 270 265 252 246 242 240 238 234 231 229 225 221 220 219 217 215 214 213 212 212 211 210 211 214 214 215 217 219 220 220 219 219 220 222 224 226 227 228 229 229 229 230 230 229 228 228 230 230 231 232 233 232 231 231 232 232 232 234 235 235 236 237 239 241 243 244 246
325 14 259 257 245 281 310 305 346 36 197 298 334 232 263 271 277 282 271 255 272 272 275 280 277 276 278 277 276 270 270 271 263 254 246 242 239 236 233 231 229 225 223 221 219 217 216 214 214 213 213 212 211 213 213 214 216 219 221 222 221 221 221 223 224 224 225 227 229 230 230 230 231 231 230 230 230 231 233 234 235 235 233 232 232 232 234 235 236 237 238 239 239 240 242 245 247
254 271 267 296 280 248 274 271 306 22 359 264 271 253 265 273 280 285 281 235 253 264 270 280 288 296 303 307 295 290 291 283 294 306 280 257 247 242 238 235 233 230 226 223 221 220 218 217 215 214 215 213 212 214 214 214 215 217 219 220 222 222 223 223 223 224 225 226 228 230 230 230 230 231 232 232 231 231 233 234 236 236 235 233 232 232 233 234 235 236 237 238 238 239 242 245 248
207 227 221 273 285 260 250 251 273 18 333 272 246 248 271 284 287 291 294 256 244 270 285 299 311 323 323 320 310 311 313 301 320 331 310 278 261 252 246 240 237 234 231 227 223 221 220 218 216 216 216 214 212 212 213 213 213 215 217 218 220 222 225 225 225 227 227 228 229 230 230 231 231 231 233 234 233 233 234 236 236 236 237 235 233 233 234 235 235 235 235 236 237 237 240 241 243
147 162 216 255 268 278 264 261 299 31 294 271 246 248 266 277 284 289 297 308 305 314 337 345 345 348 338 334 333 330 326 314 321 328 322 300 276 261 252 243 238 235 233 230 226 223 221 219 218 218 216 213 212 210 211 211 211 213 214 216 220 223 224 226 227 228 229 230 230 230 231 232 231 232 233 234 234 234 235 236 236 236 237 236 235 236 238 238 237 236 237 236 237 237 237 238 238
94 172 248 283 247 269 279 276 304 338 215 276 304 305 280 272 279 284 296 332 359 3 7 2 360 0 354 353 350 343 339 337 336 339 337 325 299 275 260 246 238 234 231 228 226 225 223 221 220 220 215 212 213 213 212 213 214 215 215 218 220 222 223 225 228 232 233 232 231 231 232 232 231 231 231 232 234 235 234 235 236 236 237 237 237 237 237 237 237 236 234 233 235 235 236 238 235
88 144 246 291 247 279 300 321 326 341 227 284 339 327 292 286 278 279 310 17 31 26 27 19 10 7 4 1 357 352 350 352 354 354 349 341 325 300 275 256 245 239 234 230 227 225 224 223 222 221 218 215 215 215 215 216 218 218 218 220 221 222 224 226 230 234 235 233 232 233 234 234 234 233 233 234 234 235 235 235 237 237 238 238 236 234 234 234 235 235 233 233 233 231 233 236 234
147 167 206 268 257 313 287 304 322 287 226 289 334 318 291 299 295 292 19 75 64 39 38 36 25 16 10 5 6 3 360 356 356 357 354 351 344 327 300 273 260 251 245 240 235 230 227 225 224 223 222 221 219 219 219 219 220 220 221 223 225 224 226 229 231 233 235 235 234 234 236 236 236 236 236 236 235 236 236 236 237 237 238 238 235 234 234 234 235 235 234 234 231 226 227 233 236
242 201 211 245 240 214 238 291 318 300 1 312 328 315 290 317 334 336 48 71 49 32 29 29 25 20 15 13 15 13 9 4 0 360 358 357 355 347 332 307 283 267 257 252 247 241 236 232 229 226 225 224 223 222 221 220 220 220 220 222 224 225 227 229 228 230 233 235 236 238 239 239 239 239 239 239 239 239 239 238 238 237 238 237 236 236 237 238 238 237 236 235 231 228 229 232 233
299 227 216 226 225 212 239 322 342 349 352 285 20 344 293 317 334 343 17 36 30 25 24 22 16 16 18 16 13 11 13 12 9 7 3 3 3 0 356 346 326 300 280 269 262 255 249 244 239 235 231 228 227 226 224 222 220 218 216 216 218 219 222 223 225 228 230 233 238 242 243 244 243 243 241 241 241 241 241 240 239 238 237 238 238 237 236 236 237 237 237 236 234 234 233 230 228
303 250 205 204 179 161 196 341 12 354 280 258 71 135 269 309 321 339 4 19 20 21 24 19 13 17 18 15 10 9 12 12 13 12 10 10 9 8 7 4 357 342 322 300 284 273 262 256 251 246 242 237 234 232 229 225 222 219 217 218 220 220 223 227 229 230 231 234 238 240 242 243 243 242 242 242 242 242 242 241 240 239 238 238 238 237 235 234 236 238 239 238 237 237 232 226 228
255 236 126 129 135 158 176 154 179 227 276 311 72 167 255 293 280 342 5 19 16 12 15 13 12 14 13 13 12 11 13 13 14 14 14 15 15 15 13 12 13 11 5 352 327 305 283 269 261 256 253 248 243 239 235 231 227 224 223 223 225 226 229 233 234 234 234 236 238 239 241 242 243 244 244 243 243 244 243 242 242 240 239 238 238 239 239 238 237 238 238 238 238 236 231 229 230
244 191 109 110 126 157 155 137 190 274 351 310 245 161 222 269 269 356 10 34 19 5 4 4 4 6 7 12 12 12 14 14 16 15 15 17 18 18 18 20 23 23 24 24 18 3 337 307 285 270 264 260 253 248 244 239 234 231 228 227 229 231 234 237 239 239 240 240 241 242 243 244 245 246 245 246 246 245 245 244 244 242 241 240 240 240 242 241 238 237 236 236 236 235 234 233 232
201 127 93 66 71 81 99 115 139 61 7 256 239 180 207 267 308 356 7 39 16 350 352 356 355 1 5 8 11 13 13 12 14 15 15 18 20 21 22 26 27 26 28 31 33 31 24 14 354 329 310 293 275 262 255 250 245 239 236 235 235 237 239 240 241 242 244 244 243 244 245 246 246 247 247 247 246 246 246 246 245 245 244 244 242 241 242 241 240 239 238 239 238 237 235 234 233
141 107 74 46 42 46 52 78 103 68 281 254 266 241 208 278 326 11 13 25 357 331 342 348 351 360 2 4 9 10 10 10 11 11 14 16 19 22 24 27 27 27 29 31 33 34 34 34 32 28 19 3 339 308 283 269 259 251 247 246 245 246 247 247 246 245 246 245 245 246 247 247 247 248 249 248 247 248 248 248 247 247 247 245 243 243 243 243 243 243 241 240 239 238 237 236 235
113 77 47 4 336 17 27 353 49 93 259 262 273 247 186 230 255 57 36 348 340 335 342 345 348 351 350 355 5 8 9 7 6 10 13 14 16 19 21 23 25 26 27 28 30 32 34 35 37 37 33 27 19 4 342 314 290 273 264 259 258 259 260 260 258 256 255 252 252 252 251 250 250 250 250 250 250 251 250 249 248 247 246 246 246 246 246 246 246 245 242 240 239 239 239 237 235
83 75 57 24 338 357 341 312 318 217 241 262 278 220 187 229 231 94 77 338 307 277 333 336 339 340 341 353 2 6 7 5 8 13 13 14 15 15 17 18 21 23 25 26 27 29 32 33 35 36 34 33 33 29 22 10 348 321 299 285 277 274 273 274 272 271 269 267 265 263 261 259 256 255 254 254 256 257 254 251 250 249 249 249 250 250 249 248 247 245 243 242 240 240 239 238 237
142 161 120 122 71 357 300 284 297 286 260 258 304 187 198 236 135 139 129 33 275 244 299 302 316 338 349 358 359 1 6 9 12 15 16 17 16 16 17 18 19 21 22 24 25 27 29 31 33 34 33 34 36 36 36 33 27 16 357 332 313 301 293 289 286 283 281 279 278 275 272 270 267 264 263 263 265 263 259 257 256 255 254 254 253 251 251 249 248 246 244 244 243 242 241 240 240
180 173 128 140 154 182 259 251 262 287 288 284 300 200 204 172 141 160 162 160 209 260 263 265 319 352 356 0 4 7 10 10 11 12 16 17 16 16 18 19 19 19 21 23 23 24 26 28 30 32 31 32 34 35 36 37 35 33 28 19 5 346 328 314 305 299 296 293 290 287 284 281 278 276 274 273 272 268 265 263 260 258 257 257 255 253 252 250 248 247 246 245 245 244 242 241 241
217 149 107 158 185 169 222 212 194 251 320 303 267 204 166 89 142 163 161 155 47 346 318 334 359 3 7 10 11 11 8 6 6 10 13 14 15 16 18 18 17 17 20 22 21 21 22 24 26 28 28 29 31 32 33 34 35 35 34 31 28 22 13 359 343 331 320 312 306 301 296 292 288 286 284 282 279 275 271 268 264 262 261 259 258 255 253 252 250 248 246 245 245 245 243 242 242
150 119 179 225 185 128 144 282 21 71 340 284 265 150 60 63 212 204 183 200 13 19 0 0 359 3 14 16 14 9 6 5 5 10 14 13 14 15 18 19 17 16 18 20 20 19 19 20 22 24 24 26 27 27 28 29 30 31 31 30 28 27 25 21 14 5 354 342 332 323 314 307 300 296 294 291 288 283 278 274 269 267 264 261 260 257 255 254 251 249 247 246 245 245 243 243 243
110 174 247 242 135 81 96 283 348 32 253 269 308 241 221 186 228 275 333 325 348 6 7 5 3 7 9 9 9 4 4 7 6 10 13 12 14 15 16 18 18 17 17 19 19 18 19 19 20 21 22 22 22 22 24 25 25 26 25 25 25 24 23 22 20 16 11 7 2 354 344 333 321 312 305 300 296 292 287 281 276 272 269 265 262 260 257 255 251 249 248 247 247 246 243 244 243
103 199 263 41 110 324 19 40 313 339 284 284 307 293 254 200 216 337 352 344 346 351 358 2 360 0 358 354 357 357 359 4 6 8 9 10 12 11 11 13 15 16 16 17 18 18 19 19 19 21 20 19 19 19 21 21 21 21 19 19 19 18 18 17 16 15 13 13 11 7 2 355 346 336 325 315 306 300 295 290 285 279 274 270 267 263 259 257 253 250 249 247 247 245 243 244 243
19 12 351 34 154 201 299 130 194 223 278 285 308 317 289 213 199 312 315 308 320 337 352 358 353 354 352 346 349 352 354 357 1 4 3 7 10 10 10 11 11 14 14 15 18 19 20 18 17 18 17 16 16 16 17 17 16 15 14 14 14 12 12 11 10 9 8 9 8 4 2 358 354 351 345 338 327 316 306 298 293 287 282 276 271 267 262 259 255 252 250 248 247 245 243 244 244
20 30 15 339 260 227 273 190 133 141 259 269 307 302 275 206 155 194 238 275 285 319 348 352 348 350 350 343 343 348 350 350 353 358 356 358 4 7 7 6 5 9 11 13 16 17 18 17 15 15 15 14 13 13 13 11 9 9 8 9 9 8 7 6 6 4 2 2 0 358 357 353 350 349 347 346 341 335 327 314 303 295 290 284 278 273 267 262 258 255 252 250 248 245 243 245 244
148 115 108 218 233 327 297 280 338 109 179 183 254 283 275 163 148 191 222 278 269 278 335 347 342 346 351 344 340 346 349 347 350 354 350 349 357 1 1 1 2 3 6 9 12 13 13 13 11 10 11 11 9 9 9 5 4 5 5 4 5 5 4 3 3 2 360 359 357 355 354 350 347 346 344 341 339 336 334 329 321 312 302 294 287 281 275 267 261 257 255 252 249 246 245 246 245
Height
820 820 820 820 820 819 821 823 834 842 844 849 850 847 841 838 842 839 836 836 834 833 836 836 836 834 833 834 833 832 830 830 830 836 836 824 822 823 823 825 825 827 828 829 832 834 835 838 839 840 842 843 844 844 846 847 849 849 851 853 854 855 856 857 858 858 859 860 860 861 863 863 864 865 866 866 866 867 869 869 870 871 871 871 871 871 871 871 871 871 871 871 872 872 872 872 872
820 821 820 820 820 820 825 827 841 851 849 851 851 846 840 841 843 834 830 831 830 832 837 837 836 835 835 835 834 833 829 827 826 826 826 823 824 823 824 825 826 828 829 830 832 833 835 837 839 840 842 843 843 844 845 847 849 850 852 853 854 855 856 858 858 859 860 861 861 862 863 863 864 865 866 867 867 868 869 870 871 872 872 872 872 872 872 872 872 872 872 872 873 873 873 873 873
820 821 820 820 821 822 828 830 843 857 852 849 845 842 841 838 834 828 828 830 832 836 837 836 835 834 834 834 833 832 827 826 827 826 825 824 824 823 825 826 827 829 830 831 832 834 835 836 838 839 841 843 844 844 845 847 850 851 852 853 853 854 856 858 859 860 860 861 862 863 864 864 865 866 867 868 868 869 870 870 871 872 873 873 873 873 873 873 873 873 873 873 874 874 874 874 874
821 820 820 820 823 825 831 837 847 854 850 850 843 836 838 832 827 827 831 834 836 836 835 835 834 833 834 833 832 831 827 824 825 824 824 823 823 823 824 826 827 829 830 831 832 834 835 836 838 839 841 842 844 845 845 848 850 851 852 853 853 854 856 858 860 861 861 862 863 864 864 865 866 867 868 868 869 870 870 871 872 873 874 873 874 873 873 874 874 874 874 874 875 875 875 875 875
821 821 821 819 826 829 837 848 855 853 843 845 839 832 833 829 826 828 833 836 836 835 835 835 833 834 834 833 832 828 823 822 822 822 823 822 822 823 824 826 827 829 830 831 833 834 835 836 838 839 840 842 843 845 846 848 850 851 851 852 853 854 855 857 859 861 862 863 864 865 865 866 867 868 868 869 870 870 871 872 872 873 874 874 874 874 874 875 875 875 875 875 875 876 876 876 876
821 821 821 820 827 831 839 849 852 851 838 836 835 828 829 828 829 829 833 836 835 835 835 835 834 834 833 830 829 824 821 821 821 821 822 821 822 823 824 826 827 829 830 831 832 834 835 836 838 839 840 841 842 844 846 848 850 851 851 852 853 854 856 857 859 861 861 863 864 865 866 867 867 868 869 870 870 871 871 872 873 874 875 875 875 875 875 876 876 876 876 876 876 877 877 877 877
821 822 824 825 831 834 841 846 845 846 836 833 833 826 825 827 831 832 833 833 833 835 835 835 835 834 830 828 826 821 821 820 820 821 821 822 822 823 824 825 827 829 830 831 832 834 835 836 838 839 840 841 842 844 846 847 850 850 850 852 854 855 857 858 859 861 861 862 864 865 867 868 868 869 870 871 871 872 872 873 873 874 875 876 876 876 876 877 877 877 877 877 877 877 877 877 877
821 823 829 830 839 844 846 849 847 845 837 833 833 827 825 827 831 832 831 831 830 832 835 835 835 834 829 830 826 819 820 820 821 821 821 822 822 823 824 826 827 829 830 831 832 833 834 836 837 838 840 841 842 845 846 848 850 850 850 851 854 856 857 859 860 860 861 862 863 865 867 868 869 870 870 871 872 873 873 874 873 874 875 876 876 877 877 878 878 878 878 878 878 877 877 877 877
821 824 831 833 843 850 850 852 849 845 839 834 832 828 827 829 831 830 829 831 831 831 833 832 833 831 828 830 825 819 820 819 821 821 821 822 822 823 824 826 827 828 830 831 832 832 834 835 837 838 840 841 842 844 846 847 849 850 850 851 853 855 857 859 860 861 861 862 864 865 866 868 869 870 871 872 873 873 874 874 874 874 875 876 877 877 878 878 878 878 879 879 878 878 877 877 878
824 826 832 837 844 850 852 851 847 843 837 833 831 827 827 829 830 830 829 829 830 830 831 832 832 830 828 827 821 818 818 817 819 820 821 822 822 824 824 826 827 828 830 831 832 833 834 835 836 838 839 841 842 844 845 847 848 850 850 851 852 854 857 858 859 861 862 863 864 865 866 868 869 870 871 872 873 874 874 875 875 875 876 876 877 877 878 878 879 879 880 880 879 878 878 878 878
827 830 831 841 848 847 846 844 841 839 835 835 831 827 828 829 830 831 831 829 829 830 830 832 831 829 829 826 820 817 817 817 818 818 820 821 822 823 825 827 828 829 830 831 832 832 834 835 836 838 839 840 842 843 845 846 848 849 850 851 853 854 857 858 859 860 861 862 864 866 867 868 869 870 871 872 873 874 875 875 875 876 876 877 877 878 878 879 879 880 880 880 879 878 878 878 878
829 834 833 843 850 846 847 844 840 838 835 834 826 825 830 830 829 827 828 829 828 830 829 828 826 826 828 824 818 816 817 816 817 818 819 820 822 823 824 826 827 829 830 830 831 832 834 835 837 838 839 840 841 843 844 846 848 849 850 851 853 855 856 858 859 860 861 862 864 866 867 868 869 870 871 872 873 874 875 875 876 876 877 877 877 878 879 879 880 880 880 880 879 878 878 878 878
829 835 835 840 847 849 852 847 844 842 833 827 823 827 831 829 827 824 826 828 828 829 826 824 824 824 825 820 816 816 816 815 816 817 818 819 821 822 824 826 827 829 829 830 831 832 834 835 836 838 839 840 842 843 844 846 847 849 850 851 853 854 856 857 858 859 861 862 864 866 867 868 869 869 871 872 873 874 874 875 876 876 877 877 878 878 879 880 880 880 880 880 879 878 878 878 878
827 832 832 839 849 852 852 845 841 841 830 824 825 829 830 827 825 825 826 826 825 825 822 821 824 824 823 819 815 814 814 814 816 817 818 820 820 822 823 825 827 828 829 830 830 831 833 835 836 837 838 840 841 843 844 846 847 849 850 851 852 854 855 857 858 859 860 862 864 866 866 867 868 869 870 872 873 874 874 875 876 877 877 877 878 878 879 880 880 880 880 879 878 878 878 878 879
827 831 832 839 848 850 849 843 837 840 832 823 826 830 829 826 825 826 826 823 821 822 822 822 822 822 820 817 812 812 813 814 816 817 818 820 821 822 823 824 826 827 828 829 830 831 832 834 835 836 837 839 841 842 843 845 847 848 849 851 852 854 855 856 858 859 860 862 864 865 865 866 868 869 870 872 873 873 874 875 876 876 876 877 878 878 879 879 880 880 880 879 878 878 878 879 879
827 829 835 840 847 849 846 843 840 841 830 822 830 833 826 824 827 826 824 823 821 822 822 820 820 818 816 814 811 812 813 814 816 817 818 820 821 822 823 824 825 826 827 828 829 830 832 833 834 836 837 838 839 841 843 844 846 848 849 851 852 853 854 856 857 859 860 861 863 864 864 866 868 869 870 871 872 872 873 874 875 876 876 877 878 878 879 879 879 879 879 879 878 878 878 879 879
826 829 838 843 847 849 843 840 838 833 824 821 829 832 824 822 826 825 823 824 822 822 821 819 818 815 813 812 811 812 813 814 816 817 818 819 820 822 822 823 824 825 826 827 828 829 831 832 833 834 835 837 838 840 842 843 845 846 848 850 851 852 853 855 856 858 859 860 861 862 864 865 867 868 869 870 870 871 872 873 874 875 876 876 877 878 878 879 879 878 878 878 878 878 879 879 880
828 835 842 841 844 845 836 831 830 828 823 820 825 830 826 821 823 824 823 822 822 822 820 818 816 812 811 811 811 812 812 814 815 816 817 818 819 820 821 822 822 823 824 825 826 827 829 830 832 833 834 835 837 839 840 842 843 845 846 848 850 851 852 854 855 857 858 859 860 861 863 864 866 867 868 868 869 870 872 873 874 875 876 876 877 877 877 878 878 877 877 878 878 879 879 880 880
831 840 842 837 837 835 829 826 826 826 822 820 824 830 828 822 823 824 820 819 822 820 816 817 816 811 809 810 811 812 812 813 814 815 815 816 817 818 819 820 820 821 822 822 824 825 826 828 829 831 832 834 835 837 839 840 842 843 844 846 848 849 851 852 854 856 857 858 859 860 862 863 865 866 867 867 868 870 871 872 873 874 875 876 876 876 876 876 877 877 877 878 878 879 879 880 880
831 838 837 831 830 828 827 826 824 824 824 822 823 829 830 824 824 824 820 818 819 815 809 812 812 807 805 808 810 810 812 812 813 813 813 814 814 815 816 816 817 818 819 820 822 823 824 826 827 829 830 832 833 835 837 839 840 841 843 844 846 848 849 851 853 854 855 857 858 859 861 862 864 865 866 867 868 869 870 871 872 873 874 874 875 875 875 876 876 877 877 878 878 879 879 880 881
831 834 829 827 831 828 823 824 824 825 828 825 824 829 826 823 826 823 820 819 813 806 804 805 804 800 801 805 808 809 810 810 811 811 810 811 811 812 812 813 814 816 818 819 820 821 822 824 825 827 828 830 831 833 834 836 838 839 841 843 844 846 848 850 851 853 854 856 857 858 860 861 863 864 865 866 867 868 869 870 871 872 873 873 874 874 875 876 876 876 877 877 878 879 879 880 881
830 829 825 826 832 826 821 825 827 827 829 827 825 825 821 823 825 820 820 818 805 797 799 800 799 798 800 804 806 807 808 808 808 808 808 808 809 809 810 811 814 815 817 817 818 819 820 822 824 825 827 828 829 831 832 833 835 837 839 841 842 844 846 848 850 851 853 854 855 857 859 860 862 863 864 865 866 867 868 869 870 871 872 873 873 874 875 875 876 876 876 877 878 878 879 880 880
827 826 825 827 830 826 822 825 827 828 827 824 824 824 823 823 819 818 819 810 797 794 798 798 798 799 800 802 804 805 806 805 805 804 804 805 806 807 808 810 811 812 813 814 816 818 819 821 822 823 825 826 828 829 830 832 833 835 837 839 840 842 844 846 848 849 851 853 854 855 857 859 860 862 863 864 865 866 867 868 869 870 871 872 873 873 874 875 875 876 876 876 877 878 879 879 880
829 826 824 826 830 826 824 827 828 829 825 823 827 826 823 818 816 820 814 801 796 796 798 799 799 799 800 801 801 802 802 802 802 800 801 801 802 803 805 807 807 809 811 812 813 815 816 818 819 821 822 824 825 827 829 830 832 834 835 837 838 840 842 844 846 848 849 851 853 854 856 857 859 860 861 862 864 865 866 867 868 869 870 871 872 872 873 874 874 875 875 876 877 877 878 878 879
828 825 823 827 829 825 826 828 827 828 826 827 830 823 817 816 821 820 804 796 797 797 798 798 798 799 799 799 799 800 800 799 799 798 799 799 800 802 803 804 806 808 808 809 811 812 814 815 816 818 820 822 823 825 828 829 830 832 834 835 836 838 840 842 844 846 848 849 851 853 854 855 857 858 859 861 862 863 864 866 867 868 869 870 870 871 872 873 874 874 875 875 876 876 877 878 879
825 824 824 824 824 824 826 825 824 827 827 828 825 817 815 819 823 810 792 792 796 796 797 795 797 798 796 796 796 797 797 796 796 795 796 797 798 800 801 802 804 804 804 806 808 809 811 812 814 816 817 819 821 824 826 827 828 830 831 833 835 837 838 840 842 844 846 848 849 851 852 854 855 856 858 859 860 862 863 864 865 866 867 868 869 870 871 872 872 873 874 874 875 876 876 877 878
827 826 825 824 824 826 826 822 824 827 825 827 823 814 812 820 822 801 783 791 795 793 794 794 796 795 793 794 795 795 794 792 791 793 794 796 797 796 797 799 799 799 801 803 804 806 808 810 811 813 815 817 819 821 823 824 826 827 829 831 833 835 836 838 840 842 844 845 847 849 850 852 853 855 856 857 859 860 861 862 864 865 866 867 868 869 870 871 871 872 873 873 874 874 875 876 877
828 827 823 822 823 823 824 822 824 825 822 825 825 813 810 820 818 795 784 791 794 792 791 792 793 791 791 792 792 793 791 788 789 791 791 790 790 790 792 793 794 796 798 799 800 803 805 806 808 810 812 814 816 818 820 821 823 825 826 828 831 833 834 836 838 839 841 843 845 846 848 849 851 852 854 855 856 858 859 861 862 863 864 865 866 868 868 869 870 870 871 872 872 873 874 874 875
828 828 822 819 820 818 821 824 826 825 820 825 826 809 799 808 803 786 786 791 792 793 790 789 790 789 790 790 790 790 787 786 788 788 785 784 785 786 787 788 790 792 794 795 798 800 801 803 805 807 809 810 813 815 817 818 820 822 824 825 827 830 832 834 835 836 838 840 842 844 845 847 848 850 851 853 854 856 857 858 860 861 862 864 865 866 867 867 868 869 870 870 871 871 872 873 873
827 829 826 822 819 816 821 828 827 823 821 824 824 808 789 789 790 784 788 792 792 791 787 786 787 787 787 787 787 785 784 784 784 782 780 781 782 784 784 784 787 789 791 794 795 797 798 800 802 805 806 808 810 812 814 815 817 819 821 823 825 826 828 830 832 834 835 837 839 841 842 844 846 847 849 850 852 853 855 856 857 859 860 862 863 864 865 866 867 867 868 869 869 870 870 871 871
826 827 830 833 825 814 819 829 826 819 821 824 820 813 795 782 783 786 789 793 792 788 784 784 784 784 784 784 785 783 782 782 780 778 778 779 780 781 782 782 785 787 789 791 791 793 796 797 799 801 803 805 807 809 811 813 815 816 818 821 822 824 825 827 829 831 832 834 836 838 840 841 843 844 846 847 849 850 852 853 854 856 858 860 861 862 863 864 865 865 866 867 868 868 869 869 869
830 824 824 836 832 817 817 829 831 821 821 824 818 814 802 786 782 787 792 793 792 787 783 783 782 781 781 781 783 781 779 780 779 778 778 778 779 779 780 781 782 784 786 787 789 791 793 794 796 798 800 802 804 806 808 810 812 814 815 817 819 820 822 824 825 827 829 831 833 835 837 839 840 841 843 844 846 848 849 850 852 853 855 857 858 860 861 861 862 863 864 865 865 866 867 867 867
833 831 822 827 829 822 819 824 834 830 823 823 820 815 805 789 780 785 793 792 790 788 782 780 780 779 779 779 780 779 777 776 776 775 775 776 777 777 778 778 779 780 782 784 786 788 790 792 793 794 796 798 801 803 805 807 809 811 813 815 816 818 819 821 823 824 826 828 830 832 833 835 837 838 840 841 843 845 847 848 849 851 853 854 856 857 858 859 860 861 862 862 863 864 864 865 865
829 836 829 827 830 827 821 818 829 834 825 822 823 820 809 792 782 783 788 790 790 787 780 777 777 775 776 778 778 777 776 774 771 771 774 774 774 775 775 776 777 778 780 781 783 785 787 789 790 791 793 795 798 800 803 805 807 809 811 813 814 815 817 819 821 821 822 824 826 828 830 831 833 835 837 839 841 842 844 846 847 849 850 852 853 854 855 856 858 858 859 860 861 861 862 863 863
823 829 826 827 832 830 825 821 826 831 826 825 827 823 809 796 789 781 782 788 787 782 780 777 777 778 780 782 781 779 778 776 775 776 777 776 774 774 774 775 776 777 779 780 781 783 785 787 788 789 791 794 796 798 801 803 806 807 809 811 812 813 815 816 817 818 819 821 822 825 826 828 830 832 834 836 838 840 841 843 844 846 847 849 850 851 852 853 854 855 856 857 858 859 860 861 861
824 827 828 827 828 828 826 823 830 836 828 824 825 820 808 798 789 779 776 785 785 780 783 785 787 789 788 787 785 784 784 781 779 780 777 776 775 775 775 775 776 777 778 779 780 782 784 786 787 788 790 793 795 797 799 801 804 805 807 808 809 810 812 813 814 815 817 818 820 821 823 825 827 829 831 833 835 837 838 840 841 842 844 846 847 847 848 848 849 851 853 854 856 857 857 858 859
830 830 830 830 831 826 822 822 832 840 827 813 816 820 813 803 791 780 776 780 785 787 791 794 796 795 792 789 788 787 786 784 781 779 776 774 773 773 773 773 774 776 776 778 780 780 782 784 785 786 788 791 793 795 797 798 800 802 804 805 807 808 809 811 812 813 814 815 816 818 819 821 823 825 827 829 831 833 835 836 837 839 840 841 842 843 844 845 847 849 851 852 853 854 854 855 856
832 831 830 832 835 826 821 827 833 838 827 812 815 816 804 798 791 780 777 783 794 800 800 801 801 800 797 794 793 790 786 785 782 779 777 775 773 772 772 772 772 772 773 775 777 778 780 781 783 785 787 789 790 792 794 795 796 798 800 801 803 805 806 807 808 809 810 812 813 814 816 818 820 822 823 826 828 829 831 832 833 834 835 837 838 840 842 843 844 846 847 848 849 850 851 852 854
833 835 834 830 833 827 822 831 836 836 827 811 815 813 792 787 788 777 781 795 806 810 809 810 809 805 803 800 798 794 788 785 783 781 779 777 775 773 772 772 772 772 773 774 774 776 777 779 781 784 785 787 788 790 791 792 794 795 797 798 800 802 803 804 805 806 808 810 811 813 814 816 817 819 820 822 824 826 828 829 830 831 831 833 834 836 838 839 841 842 843 844 846 847 848 850 850
832 834 832 825 829 828 816 823 833 833 830 821 821 820 794 780 777 772 787 805 809 814 814 814 815 813 813 811 806 802 797 792 788 785 783 780 777 775 773 773 773 774 775 775 776 776 777 778 780 782 783 785 786 787 788 790 792 794 796 797 799 800 801 803 804 805 806 808 809 810 812 813 815 816 817 819 821 822 824 825 826 827 828 829 831 832 833 835 836 838 839 840 842 843 844 845 845
831 832 829 822 825 827 818 824 831 825 831 834 826 812 786 772 773 774 789 805 806 812 815 813 817 819 816 812 810 809 807 802 797 792 788 785 781 778 776 774 774 775 775 776 778 778 779 778 779 780 781 782 783 784 786 789 791 793 795 796 798 799 800 802 803 803 804 805 806 807 808 810 811 812 814 815 817 819 820 821 823 824 825 826 827 828 829 830 831 833 835 836 837 838 839 840 841
827 824 823 821 821 826 826 829 827 814 816 827 823 806 786 774 776 781 792 806 812 814 817 818 819 818 814 812 813 812 811 809 805 801 796 791 787 782 779 777 777 776 776 777 778 779 780 780 780 780 781 781 782 783 784 786 788 789 791 793 795 796 797 798 798 799 800 801 802 803 804 806 807 808 810 811 813 814 816 817 819 820 821 822 823 824 825 826 827 829 830 831 832 833 835 837 837
820 821 826 828 828 830 830 828 825 813 808 820 826 815 803 789 779 788 802 812 818 818 820 824 823 822 822 822 820 817 814 811 808 805 801 796 792 787 783 782 780 778 778 778 778 778 779 780 781 781 782 782 782 783 784 785 786 787 788 789 790 792 792 793 794 795 796 797 798 800 801 802 803 804 806 807 809 810 812 813 814 816 817 818 819 820 821 822 823 824 825 826 827 829 832 833 833
816 829 835 831 831 829 829 829 825 824 821 826 831 823 817 804 786 797 814 816 821 823 825 829 830 831 831 829 827 823 819 815 812 809 806 802 799 795 792 788 785 782 780 778 778 779 779 779 780 781 782 783 783 784 785 785 785 786 786 787 788 789 790 790 792 793 794 795 796 797 799 799 801 802 802 804 805 806 808 809 810 811 812 814 815 815 816 818 819 820 822 822 824 825 827 828 829
820 840 841 834 834 829 834 834 828 839 834 817 822 827 815 799 796 811 820 824 834 836 836 839 838 838 836 834 830 826 823 821 818 815 811 808 805 803 800 796 791 787 783 781 780 780 780 780 780 781 782 782 783 784 784 785 785 786 786 786 787 787 788 789 791 792 792 794 795 795 797 797 798 799 799 801 802 803 804 805 806 807 808 809 810 810 811 813 815 816 817 818 819 820 821 822 824
831 845 842 840 842 839 842 837 831 842 831 805 811 823 804 787 808 833 830 835 850 849 847 846 844 843 840 837 834 829 828 826 823 821 818 815 811 809 806 800 795 792 789 786 784 782 781 781 781 782 782 783 783 784 784 785 785 786 786 786 786 787 787 788 789 790 791 792 792 793 794 794 795 796 796 797 798 799 800 801 802 803 803 805 805 806 808 809 810 811 812 813 813 815 816 817 818
840 839 832 832 840 845 845 843 840 829 810 805 822 832 811 791 818 851 847 849 860 857 854 850 845 845 841 839 837 833 832 829 827 825 821 818 815 812 808 803 800 798 795 791 788 787 785 784 783 783 783 783 784 784 784 785 785 786 786 786 786 787 787 788 788 789 789 790 790 790 791 792 792 793 794 795 795 796 797 797 798 799 799 801 802 803 804 804 806 806 808 809 809 810 812 813 814
839 829 822 819 824 833 834 836 837 812 791 810 837 842 820 798 819 852 855 855 860 859 859 855 850 848 845 843 839 836 836 833 830 826 822 819 815 812 809 806 805 801 798 796 794 793 791 789 787 785 785 785 784 785 784 785 785 785 786 786 786 787 787 788 788 788 789 789 789 789 790 790 791 791 791 792 792 793 793 793 794 795 796 797 797 798 799 800 801 803 804 805 805 806 807 809 809
833 827 823 815 810 812 808 808 816 803 795 821 842 832 815 813 832 852 856 857 858 858 859 856 855 852 848 844 840 838 838 835 832 828 824 821 817 816 813 811 809 806 803 802 800 799 796 794 792 790 789 788 787 787 785 785 785 785 786 786 786 786 786 787 787 787 788 788 788 788 789 789 789 789 789 789 789 790 790 790 791 791 791 792 793 794 795 796 797 799 799 800 801 801 803 804 804
831 824 820 813 809 808 800 800 809 804 801 827 843 823 809 827 847 852 854 858 855 855 856 854 855 853 848 845 842 840 838 835 833 830 827 826 823 821 819 816 815 812 809 807 805 804 801 799 797 795 794 793 790 789 787 786 786 785 786 785 785 785 785 785 785 786 786 786 787 787 787 787 787 787 787 786 787 787 787 787 787 787 788 788 789 790 791 792 793 794 795 795 796 797 798 799 799
832 830 826 817 810 809 805 800 799 797 802 823 833 814 801 818 840 851 854 855 853 853 854 853 852 850 847 845 842 839 837 835 834 833 830 829 827 825 823 820 819 817 814 811 809 808 806 804 802 800 798 796 794 792 790 789 788 787 787 786 785 785 784 784 784 784 784 784 784 784 784 785 785 785 785 785 785 785 784 784 784 783 784 785 785 786 787 788 789 790 790 791 791 792 794 794 794
834 839 829 820 816 812 811 815 820 820 817 817 815 812 824 839 846 854 854 851 853 852 851 851 849 848 846 844 843 841 840 839 837 836 833 830 830 828 825 823 822 820 817 814 813 812 810 808 805 803 802 800 797 795 794 792 791 790 789 788 787 785 784 783 783 782 782 781 781 781 782 782 783 783 783 783 783 782 782 781 781 780 780 781 781 782 783 783 785 785 785 786 786 788 789 789 790
830 834 820 823 831 821 815 827 843 844 828 815 808 812 840 856 849 853 855 851 853 851 849 851 848 847 847 844 845 844 843 842 839 837 835 833 832 830 828 826 825 823 819 816 816 815 814 812 808 805 803 801 799 797 796 794 792 791 790 789 787 786 785 783 782 781 780 780 779 779 779 779 779 780 780 780 780 780 780 779 778 777 777 777 777 778 778 779 780 780 780 781 781 783 784 783 784
825 824 821 828 834 827 824 827 831 833 825 816 809 811 828 831 826 844 855 847 848 848 846 848 844 844 845 844 845 844 843 842 839 838 836 834 833 831 830 829 826 825 821 819 819 818 817 814 810 806 803 801 800 798 797 795 793 792 790 789 788 786 786 784 783 782 780 779 778 777 777 776 777 777 776 777 776 776 777 777 776 775 774 774 773 774 775 775 776 776 776 776 777 779 779 778 779
828 827 830 828 824 822 829 831 826 830 828 816 811 818 826 825 825 844 854 846 848 850 847 848 846 845 846 844 844 843 841 841 838 837 836 834 834 832 830 829 827 826 824 822 822 820 818 814 811 807 805 803 802 799 798 796 794 793 791 790 789 787 786 785 783 782 781 779 778 777 777 776 775 775 774 774 773 773 774 774 773 772 771 771 770 770 771 771 772 772 771 772 773 775 775 774 775
833 832 834 832 831 828 829 835 834 833 830 823 820 814 815 835 847 849 852 851 852 853 852 852 851 849 848 846 845 843 841 840 839 838 837 835 835 833 832 831 829 829 827 825 823 820 817 814 810 808 806 804 802 800 798 796 795 794 792 791 789 788 787 785 784 783 781 780 779 777 777 776 775 774 773 772 772 771 771 771 770 770 769 768 767 767 767 768 768 767 767 768 769 770 770 769 770
826 826 829 829 832 832 833 839 839 836 833 834 838 822 811 838 855 848 849 852 850 853 853 852 851 850 849 847 846 845 843 842 840 839 838 836 835 834 833 833 831 830 828 825 822 818 815 813 810 809 806 804 803 801 800 798 797 795 793 791 790 788 787 786 785 783 781 780 779 778 777 775 774 773 771 771 770 770 769 768 767 766 766 765 764 764 764 764 764 763 764 764 765 766 766 765 766
823 821 828 830 830 831 835 841 842 844 841 839 844 831 817 837 852 847 851 851 849 852 851 851 851 850 850 848 845 845 844 843 841 840 839 837 836 835 833 832 831 828 826 823 820 817 815 813 812 810 809 807 805 803 801 800 798 796 794 793 791 790 789 788 786 785 783 781 780 778 777 775 773 772 770 769 768 768 767 766 765 763 763 762 761 761 761 761 761 760 760 761 761 762 761 761 761